星链-2419 (STARLINK-2419 )

导读

STARLINK-2419是美国太空探索技术公司(SpaceX)星链(Starlink)卫星互联网项目的成员,于2021年3月11日发射升空,属于星链项目的组网卫星,旨在为全球提供低延迟、高速率的宽带互联网服务,该卫星运行在近地轨道,是星链全球卫星互联网组网的重要组成部分。

基本信息
目录编号:
47830
目录名称:
STARLINK-2419
国际标识:
2021-018AV
轨道中心:
EARTH
卫星名称:
星链-2419
卫星全名:
星链-2419 (STARLINK-2419 )
卫星状态:
在轨 (已飞行1925 天)
发射日期:
2021-03-11 UTC
国别 :
美国 (US)
星等 :
--
轨道信息
数据来源 国际轨道数据 AOE轨道数据
星历时间 2026-06-18T10:40:43+0800
13小时前
查看轨道信息
2026-06-18T18:00:00+0800
6小时前
查看轨道信息
半长轴 6848.894km 6848.832km
偏心率 0.000121 0.0001534
轨道倾角 53.160° 53.157°
近地点辐角 99.097° 75.629°
升交点赤经 148.444° 147.028°
平近点角 261.017° 167.594°
近地点 469.928km 469.644km
远地点 471.586km 471.746km
周期 94.014分钟 94.012分钟
每日圈数 15.316945 15.317152
详细信息
固有亮度:
5
最大亮度:
2.5
卫星平台:
Starlink V1.0
覆盖范围:
全球
运营商:
太空探索技术公司
运营商所在国:
美国
制造商(研发单位):
太空探索技术公司
制造商所在国:
美国
使用方式:
暂无
卫星简介
星链(Starlink)计划是由太空探索技术公司(SpaceX)提出的一个巨型低轨卫星互联网星座项目,计划在2019年至2024年间在太空搭建由约1.2万颗卫星组成的“星链”网络,其中1584颗将部署在地球上空550千米处的近地轨道,并从2020年开始工作。该卫星仍在工作。
2D轨道图
3D轨道图
轨道高度分析图
轨道倾角分析图
轨道综合分析图
查看轨道综合分析图